Weather History for MROC - February, 2014

Change the Weather History Date:

Wednesday, February 12, 2014

  Actual Average Record
Temperature  
Mean Temperature 77 °F -  
Max Temperature 86 °F 82 °F 87 °F (2007)
Min Temperature 68 °F 64 °F 61 °F (2013)
Cooling Degree Days 12    
Growing Degree Days 27 (Base 50)    
Moisture  
Dew Point 57 °F    
Average Humidity 53    
Maximum Humidity 68    
Minimum Humidity 23    
Precipitation  
Precipitation 0.00 in 0.02 in - ()
Sea Level Pressure  
Sea Level Pressure 29.92 in    
Wind  
Wind Speed 12 mph ()    
Max Wind Speed 17 mph    
Max Gust Speed 30 mph    
Visibility 8.4 miles    
Events      
Averages and records for this station are not official NWS values.
T = Trace of Precipitation, MM = Missing Value Source: Averaged Metar Reports

Daily Weather History Graph

Daily Weather History Graph

Search for Another Location

Airport or City:

Trip Planner

Search our weather history database for the weather conditions in past years. The results will help you decide how hot, cold, wet, or windy it might be!

Date:

Astronomy

Feb. 12, 2014 Rise Set
Actual Time 5:57 AM CST 5:44 PM CST
Civil Twilight 5:35 AM CST 6:06 PM CST
Nautical Twilight 5:10 AM CST 6:31 PM CST
Astronomical Twilight 4:46 AM CST 6:56 PM CST
Moon 4:04 PM CST (2/12) 4:04 AM CST (2/12)
Length of Visible Light 12h 30m
Length of Day
11h 47m
Waxing Gibbous, 95% of the Moon is Illuminated
Feb 12
Waxing Gibbous
Feb 14
Full
Feb 22
Last Quarter
Mar 1
New
Mar 8
First Quarter

Hourly Weather History & Observations

Time (CST) Temp. Heat Index Dew Point Humidity Pressure Visibility Wind Dir Wind Speed Gust Speed Precip Events Conditions
12:00 AM 72 °F - 58 °F 52% 29.83 in 12 mi East 17.3 mph - -   Scattered Clouds
12:00 AM 71.6 °F - 59.0 °F 64% 29.99 in - East 17.3 mph - N/A   Clear
1:00 AM 69.8 °F - 59.0 °F 68% 29.98 in - ESE 9.2 mph - N/A   Clear
2:00 AM 69.8 °F - 59.0 °F 68% 29.95 in - East 12.7 mph - N/A   Clear
3:00 AM 70 °F - 59 °F 59% 29.77 in 12 mi East 13.8 mph - -  
3:00 AM 69.8 °F - 59.0 °F 68% 29.93 in - East 13.8 mph 25.3 mph N/A   Clear
4:00 AM 69.8 °F - 59.0 °F 68% 29.93 in - ESE 11.5 mph 23.0 mph N/A   Clear
5:00 AM 69.8 °F - 59.0 °F 68% 29.95 in - ESE 12.7 mph 24.2 mph N/A   Clear
6:00 AM 69 °F - 58 °F 60% 29.83 in 12 mi ESE 13.8 mph - -   Scattered Clouds
6:00 AM 69.8 °F - 59.0 °F 68% 29.96 in 6.2 mi ESE 13.8 mph 25.3 mph N/A   Scattered Clouds
7:00 AM 71.6 °F - 59.0 °F 64% 29.98 in 6.2 mi ESE 17.3 mph 28.8 mph N/A   Scattered Clouds
8:00 AM 73.4 °F - 59.0 °F 61% 30.01 in 6.2 mi East 15.0 mph 26.5 mph N/A   Scattered Clouds
9:00 AM 77 °F - 58 °F 41% 29.86 in 12 mi East 15.0 mph - -   Scattered Clouds
9:00 AM 77.0 °F - 57.2 °F 50% 30.01 in 6.2 mi East 15.0 mph 26.5 mph N/A   Scattered Clouds
10:00 AM 80.6 °F 80.5 °F 55.4 °F 42% 30.01 in 6.2 mi East 16.1 mph 29.9 mph N/A   Partly Cloudy
11:00 AM 82.4 °F 81.7 °F 55.4 °F 39% 29.98 in 6.2 mi East 13.8 mph 25.3 mph N/A   Scattered Clouds
12:00 PM 83 °F - 54 °F 27% 29.79 in 12 mi East 13.8 mph - -   Scattered Clouds
12:00 PM 82.4 °F 81.4 °F 53.6 °F 37% 29.96 in 6.2 mi East 13.8 mph 25.3 mph N/A   Mostly Cloudy
1:00 PM 86.0 °F 84.5 °F 55.4 °F 35% 29.93 in 6.2 mi East 12.7 mph - N/A   Mostly Cloudy
2:00 PM 84.2 °F 83.0 °F 55.4 °F 37% 29.91 in 6.2 mi East 12.7 mph - N/A   Mostly Cloudy
3:00 PM 86 °F - 54 °F 23% 29.73 in 12 mi East 11.5 mph - -   Scattered Clouds
3:00 PM 86.0 °F 84.2 °F 53.6 °F 33% 29.89 in 6.2 mi East 11.5 mph - N/A   Scattered Clouds
4:00 PM 84.2 °F - 51.8 °F 33% 29.89 in 6.2 mi East 10.4 mph - N/A   Scattered Clouds
5:00 PM 80.6 °F 80.5 °F 55.4 °F 42% 29.91 in 6.2 mi East 8.1 mph - N/A   Scattered Clouds
6:00 PM 75 °F - 58 °F 45% 29.80 in 12 mi ESE 9.2 mph - -   Scattered Clouds
6:00 PM 75.2 °F - 57.2 °F 53% 29.93 in 6.2 mi ESE 9.2 mph - N/A   Scattered Clouds
7:00 PM 73.4 °F - 59.0 °F 61% 29.95 in - SE 8.1 mph - N/A   Clear
8:00 PM 71.6 °F - 59.0 °F 64% 29.98 in - East 6.9 mph - N/A   Clear
9:00 PM 71 °F - 60 °F 59% 29.81 in 12 mi East 5.8 mph - -  
9:00 PM 71.6 °F - 59.0 °F 64% 30.00 in - East 5.8 mph - N/A   Clear
10:00 PM 68.0 °F - 57.2 °F 68% 30.00 in - ENE 5.8 mph - N/A   Clear
11:00 PM 69.8 °F - 59.0 °F 68% 30.00 in - East 8.1 mph - N/A   Clear